Versailles, OH

2:36 AM EST on February 22, 2018 (GMT -0500)
Darke County

Weather History for KVES - October, 2012

Change the Weather History Date:

Friday, October 5, 2012

  Actual Average (KDAY) Record (KDAY)
Temperature  
Mean Temperature 52 °F -  
Max Temperature 62 °F 68 °F 93 °F (1900)
Min Temperature 41 °F 47 °F 28 °F (1901)
Degree Days  
Heating Degree Days 14    
Growing Degree Days 2 (Base 50)    
Moisture  
Dew Point 49 °F    
Average Humidity 92    
Maximum Humidity 100    
Minimum Humidity 72    
Precipitation  
Precipitation 0.74 in - - ()
Sea Level Pressure  
Sea Level Pressure 30.08 in    
Wind  
Wind Speed 7 mph (WNW)    
Max Wind Speed 13 mph    
Max Gust Speed 20 mph    
Visibility 9 miles    
Events Rain , Thunderstorm    
Averages and records for this station are not official NWS values.
T = Trace of Precipitation, MM = Missing Value Source: NWS Daily Summary

Daily Weather History Graph

Daily Weather History Graph

Search for Another Location

Airport or City:

Trip Planner

Search our weather history database for the weather conditions in past years. The results will help you decide how hot, cold, wet, or windy it might be!

Date:

Astronomy

Oct. 05, 2012 Rise Set
Actual Time 7:38 AM EDT 7:13 PM EDT
Civil Twilight 7:11 AM EDT 7:40 PM EDT
Nautical Twilight 6:40 AM EDT 8:11 PM EDT
Astronomical Twilight 6:08 AM EDT 8:43 PM EDT
Moon 10:35 PM EDT (10/5) 12:46 PM EDT (10/5)
Length of Visible Light 12h 28m
Length of Day
11h 34m
Waning Gibbous, 74% of the Moon is Illuminated
Oct 5
Waning Gibbous
Oct 8
Last Quarter
Oct 15
New
Oct 21
First Quarter
Oct 29
Full

Hourly Weather History & Observations

Time (EDT) Temp. Windchill Dew Point Humidity Pressure Visibility Wind Dir Wind Speed Gust Speed Precip Events Conditions
12:15 AM 62.6 °F - 53.6 °F 72% 30.11 in 10.0 mi SW 8.1 mph - N/A   Clear
12:35 AM 62.6 °F - 53.6 °F 72% 30.11 in 10.0 mi SW 9.2 mph - N/A   Clear
12:55 AM 62.6 °F - 53.6 °F 72% 30.11 in 10.0 mi SW 8.1 mph - N/A   Clear
1:15 AM 62.6 °F - 53.6 °F 72% 30.11 in 10.0 mi SW 8.1 mph - N/A   Clear
1:35 AM 60.8 °F - 53.6 °F 77% 30.11 in 10.0 mi SW 6.9 mph - N/A   Clear
1:55 AM 60.8 °F - 55.4 °F 82% 30.10 in 10.0 mi SW 8.1 mph - N/A   Clear
2:15 AM 60.8 °F - 55.4 °F 82% 30.09 in 10.0 mi SSW 5.8 mph - N/A   Clear
2:35 AM 60.8 °F - 55.4 °F 82% 30.09 in 10.0 mi SW 6.9 mph - N/A   Clear
2:55 AM 60.8 °F - 55.4 °F 82% 30.10 in 10.0 mi WSW 6.9 mph - N/A   Clear
3:15 AM 59.0 °F - 55.4 °F 88% 30.10 in 10.0 mi SSW 5.8 mph - N/A   Clear
3:35 AM 59.0 °F - 55.4 °F 88% 30.10 in 10.0 mi SW 4.6 mph - N/A   Clear
3:55 AM 59.0 °F - 55.4 °F 88% 30.10 in 10.0 mi WSW 4.6 mph - N/A   Clear
4:15 AM 59.0 °F - 55.4 °F 88% 30.10 in 10.0 mi WSW 4.6 mph - N/A   Scattered Clouds
4:35 AM 59.0 °F - 55.4 °F 88% 30.10 in 10.0 mi WSW 4.6 mph - N/A   Scattered Clouds
4:55 AM 57.2 °F - 55.4 °F 94% 30.10 in 10.0 mi West 3.5 mph - N/A   Scattered Clouds
5:15 AM 55.4 °F - 53.6 °F 94% 30.11 in 10.0 mi West 4.6 mph - N/A   Clear
5:35 AM 55.4 °F - 53.6 °F 94% 30.11 in 10.0 mi West 5.8 mph - N/A   Clear
5:55 AM 55.4 °F - 53.6 °F 94% 30.12 in 10.0 mi WNW 5.8 mph - N/A   Clear
6:15 AM 55.4 °F - 53.6 °F 94% 30.12 in 10.0 mi WNW 5.8 mph - N/A   Clear
6:35 AM 53.6 °F - 53.6 °F 100% 30.14 in 10.0 mi WNW 8.1 mph - N/A   Clear
6:55 AM 53.6 °F - 53.6 °F 100% 30.14 in 10.0 mi WNW 6.9 mph - N/A   Scattered Clouds
7:15 AM 53.6 °F - 51.8 °F 94% 30.14 in 10.0 mi WNW 6.9 mph - N/A   Overcast
7:35 AM 53.6 °F - 51.8 °F 94% 30.12 in 10.0 mi WNW 4.6 mph - N/A   Overcast
7:55 AM 53.6 °F - 51.8 °F 94% 30.13 in 10.0 mi WNW 3.5 mph - N/A Thunderstorm Overcast
8:15 AM 53.6 °F - 51.8 °F 94% 30.12 in 10.0 mi Calm Calm - N/A   Overcast
8:55 AM 53.6 °F - 51.8 °F 94% 30.12 in 10.0 mi WNW 4.6 mph - N/A   Mostly Cloudy
9:15 AM 55.4 °F - 51.8 °F 88% 30.12 in 10.0 mi NNW 5.8 mph - N/A   Overcast
9:35 AM 55.4 °F - 50.0 °F 82% 30.13 in 10.0 mi NW 6.9 mph - N/A   Scattered Clouds
9:55 AM 57.2 °F - 48.2 °F 72% 30.12 in 10.0 mi NW 5.8 mph - N/A   Scattered Clouds
10:15 AM 55.4 °F - 46.4 °F 72% 30.12 in 10.0 mi NW 3.5 mph - N/A   Overcast
10:35 AM 57.2 °F - 48.2 °F 72% 30.12 in 10.0 mi WNW 4.6 mph - N/A Thunderstorm Mostly Cloudy
10:55 AM 55.4 °F - 50.0 °F 82% 30.12 in 10.0 mi West 3.5 mph - N/A Rain Rain
11:15 AM 53.6 °F - 51.8 °F 94% 30.12 in 3.0 mi NW 6.9 mph - 0.08 in Rain Heavy Rain
11:35 AM 51.8 °F - 51.8 °F 100% 30.14 in 7.0 mi WNW 9.2 mph - 0.15 in   Overcast
11:55 AM 51.8 °F - 50.0 °F 94% 30.14 in 10.0 mi WNW 5.8 mph - 0.15 in   Overcast
12:35 PM 51.8 °F - 51.8 °F 100% 30.12 in 10.0 mi West 4.6 mph - N/A   Overcast
12:55 PM 51.8 °F - 51.8 °F 100% 30.11 in 10.0 mi WNW 4.6 mph - N/A   Overcast
1:15 PM 51.8 °F - 51.8 °F 100% 30.12 in 10.0 mi WNW 8.1 mph - N/A   Overcast
1:35 PM 51.8 °F - 50.0 °F 94% 30.10 in 10.0 mi WNW 4.6 mph - N/A Rain Light Rain
1:55 PM 51.8 °F - 50.0 °F 94% 30.07 in 10.0 mi Calm Calm - N/A   Overcast
2:35 PM 50.0 °F - 50.0 °F 100% 30.05 in 5.0 mi Calm Calm - 0.01 in Rain Rain
2:55 PM 50.0 °F - 50.0 °F 100% 30.05 in 4.0 mi NW 5.8 mph - 0.07 in Rain Rain
3:15 PM 50.0 °F - 48.2 °F 94% 30.05 in 7.0 mi NW 9.2 mph - 0.03 in Rain Rain
3:35 PM 50.0 °F - 50.0 °F 100% 30.07 in 7.0 mi WNW 11.5 mph - 0.06 in Rain Light Rain
3:55 PM 46.4 °F 41.9 °F 46.4 °F 100% 30.07 in 7.0 mi NW 9.2 mph - 0.07 in Rain Rain
4:15 PM 46.4 °F 45.2 °F 46.4 °F 100% 30.04 in 5.0 mi NW 3.5 mph - 0.06 in Rain Rain
4:35 PM 46.4 °F 42.9 °F 46.4 °F 100% 30.06 in 5.0 mi NW 6.9 mph - 0.12 in Rain Rain
4:55 PM 46.4 °F 42.9 °F 46.4 °F 100% 30.05 in 7.0 mi NW 6.9 mph - 0.16 in Rain Light Rain
5:15 PM 46.4 °F 42.9 °F 46.4 °F 100% 30.04 in 10.0 mi NNW 6.9 mph - N/A Rain Rain
5:35 PM 46.4 °F 42.9 °F 46.4 °F 100% 30.03 in 10.0 mi NNW 6.9 mph - 0.01 in Rain Rain
5:55 PM 44.6 °F 40.2 °F 44.6 °F 100% 30.03 in 10.0 mi NNW 8.1 mph - 0.01 in   Drizzle
6:15 PM 44.6 °F 41.4 °F 44.6 °F 100% 30.03 in 10.0 mi NNW 5.8 mph - N/A   Overcast
6:35 PM 44.6 °F 41.4 °F 44.6 °F 100% 30.03 in 10.0 mi NNW 5.8 mph - N/A   Overcast
6:55 PM 44.6 °F 40.2 °F 42.8 °F 93% 30.03 in 10.0 mi NNW 8.1 mph - N/A   Overcast
7:15 PM 44.6 °F 42.2 °F 44.6 °F 100% 30.03 in 10.0 mi North 4.6 mph - N/A   Overcast
7:35 PM 44.6 °F 41.4 °F 44.6 °F 100% 30.04 in 10.0 mi NNW 5.8 mph - N/A   Light Drizzle
7:55 PM 44.6 °F 38.4 °F 42.8 °F 93% 30.05 in 5.0 mi NNW 12.7 mph 17.3 mph 0.02 in Rain Rain
8:15 PM 42.8 °F 37.5 °F 42.8 °F 100% 30.04 in 10.0 mi North 9.2 mph - N/A Rain Light Rain
8:35 PM 42.8 °F 38.6 °F 41.0 °F 93% 30.06 in 10.0 mi NNW 6.9 mph - 0.01 in Rain Light Rain
8:55 PM 42.8 °F 37.0 °F 41.0 °F 93% 30.08 in 10.0 mi NW 10.4 mph - 0.01 in Rain Rain
9:15 PM 42.8 °F 37.5 °F 41.0 °F 93% 30.06 in 7.0 mi NNW 9.2 mph - 0.01 in Rain Rain
9:35 PM 41.0 °F 35.2 °F 41.0 °F 100% 30.04 in 5.0 mi NNW 9.2 mph - 0.06 in Rain Rain
9:55 PM 41.0 °F 33.9 °F 41.0 °F 100% 30.05 in 10.0 mi NNW 12.7 mph 17.3 mph 0.08 in Rain Light Rain
10:15 PM 41.0 °F 34.3 °F 41.0 °F 100% 30.03 in 7.0 mi NNW 11.5 mph - 0.01 in Rain Light Rain
10:35 PM 41.0 °F 35.8 °F 41.0 °F 100% 30.03 in 7.0 mi NNW 8.1 mph - 0.02 in Rain Light Rain
10:55 PM 41.0 °F 37.1 °F 41.0 °F 100% 30.04 in 10.0 mi NW 5.8 mph - 0.02 in   Overcast
11:15 PM 41.0 °F 36.4 °F 41.0 °F 100% 30.03 in 10.0 mi NNW 6.9 mph 19.6 mph N/A   Drizzle
11:35 PM 41.0 °F 35.8 °F 41.0 °F 100% 30.03 in 2.0 mi NNW 8.1 mph - 0.06 in Rain Heavy Rain
11:55 PM 41.0 °F 36.4 °F 39.2 °F 93% 30.05 in 4.0 mi WNW 6.9 mph - 0.15 in Rain Rain